Погода в Ишиме

Погода в Ишиме : погода сейчас, прогноз погоды и архив. Всё, что Вы хотите узнать о погоде в Ишиме!

Хотите узнать прогноз погоды в Ишиме? Тогда Вам сюда: Погода в Ишиме

Поиск расширенной информации на нашем сайте:

Другие новости

Новости СМИ2

Главная страница сайта

Новости сайта

03.07.2017

Напоминаем, что на нашем специализированном сайте Метеоцентр.Азия вы можете получить высокодетализированные автоматические прогнозы погоды по пунктам России, СНГ и мира в авиационном формате (включающие направление и скорость ветра, видимость, явления погоды, количество и форму облачности, нижнюю и верхнюю границу облачности).


Погода в Ишиме - сегодня

Время (UTC), дата Ветер
(°,м/с) 
Видим.   Явления Облачность Т
(°С)
Тd
(°С)
f(%) Тe
(°С)
Pmin
(гПа)
dP
(гПа)
Po
(мм)
O2
(г/м3)
Тmin Tmax R s Состояние
почвы
21 19.09.17 170 (Ю) 10 км  {ливн. осадки}  10/0 средняя 
[Ac und]
+8.5 +5.8 83 +9  1019.2  -1.7  757  295           
00 20.09.17 130 (ЮВ) 10 км  {ливн. осадки}  10/10 1000 м 
[Sc]
+9.1 +5.4 78 +9  1015.9  -3.2  754  293           
03 20.09.17 170 (Ю) 20000 м  {гроза, ливн. осадки}  10/4 1000 м верхняя 
[Sc|Ci fib]
+9.1 +7.1 87 +9  1013.7  -2.2  753  292         
06 20.09.17 170 (Ю) 10 км  гроза, ливневой дождь  9/9 600 м кучево-дожд. 
[Cb cap]
+11.1 +9.7 91 +12  1012.1  -1.5  752  289           
09 20.09.17 210 (ЮЗ) 20000 м  {гроза, ливн. осадки}  8/0 средняя, верхняя 
[Ac trans|Ci]
+18.2 +13.6 75 +25  1010.4  -1.5  751  281           
12 20.09.17 290 (З) 20000 м  {гроза, ливн. осадки}  4/3 600 м кучево-дожд., верхняя 
[Cb cap|Ci fib]
+20.8 +9.4 48 +21  1010.3  751  279           
15 20.09.17 290 (З) 10 км    8/4 600 м кучево-дожд., верхняя 
[Cb cap|Ci fib]
+15.6 +9.6 67 +17  1011.8  1.3  752  285    +21.3     
18 20.09.17 310 (СЗ) 10 км    10/10 600 м кучево-дожд. 
[Cb cap]
+13.4 +8.5 72 +14  1012.4  0.5  752  287           
21 20.09.17 250 (З) 10 км    4/0 верхняя 
[Ci fib]
+8.4 +7.4 93 +8  1012.6  752  293           
00 21.09.17 260 (З) 10 км    9/9 600 м кучево-дожд. 
[Cb cap]
+10.3 +9.3 94 +10  1013.1  0.5  752  290           
03 21.09.17 300 (СЗ) 20000 м    10/10 600 м кучево-дожд. 
[Cb cap]
+11 +9.2 89 +11  1014  0.9  753  290  +7.2        влажная 
06 21.09.17 350 (С) 20000 м    10/10 600 м кучево-дожд. 
[Cb cap]
+9.7 +6.7 82 +9  1015.4  1.3  754  292           
09 21.09.17 010 (С) 20000 м    8/8 1000 м 
[Sc]
+9.7 +5.8 77 +8  1017  1.5  755  293           
12 21.09.17 010 (С) 20000 м    10/10 1000 м 
[Sc]
+8.6 +4.4 75 +8  1019.4  2.3  757  295           
15 21.09.17 340 (С) 10 км    10/10 1000 м 
[Sc]
+7.5 +5.1 85 +7  1021  1.6  758  297    +11       
18 21.09.17 340 (С) 10 км    6/6 600 м кучево-дожд. 
[Cb cap]
+6.6 +5.3 91 +6  1022.1  759  298           
21 21.09.17 340 (С) 10 км    9/0 средняя 
[Ac trans]
+6 +4.8 92 +6  1022.7  0.6  759  299           
00 22.09.17 310 (СЗ) 10 км    9/9 1000 м 
[Sc]
+5.2 +4.3 94 +5  1023.3  0.6  760  300           
03 22.09.17 310 (СЗ) 20000 м    10/10 600 м кучево-дожд. 
[Cb cap]
+5.7 +4.6 93 +5  1023.4  0.1  760  299  +5.1        влажная 
06 22.09.17 310 (СЗ) 20000 м    8/3 600 м кучево-дожд., средняя 
[Cb cap|Ac trans]
+7.7 +4.8 82 +6  1023  -0.3  760  297           
09 22.09.17 330 (СЗ) 5{10}  20000 м  в посл. час ливневой дождь  4/4 600 м кучево-дожд. 
[Cb cap]
+8.8 +3.3 68 +7  1022.6  -0.4  759  296           
12 22.09.17 010 (С) 6-11{14}  20000 м  {ливн. осадки}  6/6 600 м кучево-дожд. 
[Cb cap]
+7.4 -1.3 54 +5  1024.5  1.7  761  299           
15 22.09.17 360 (С) 3{13}  10 км    1/1 600 м кучево-дожд. 
[Cb cap]
+2.5 -4.7 59 +1  1027.6  2.9  763  305    +9  0.4     
18 22.09.17 340 (С) 3{12}  10 км    10/10 600 м кучево-дожд. 
[Cb cap]
+2.9 -2.9 66 +2  1027.7  0.1  763  305           
21 22.09.17 350 (С) 10 км    10/10 1000 м 
[Sc]
+2.3 -3.4 66 1028.1  0.4  763  305           
Время (UTC), дата Ветер
(°,м/с) 
Видим.   Явления Облачность Т
(°С)
Тd
(°С)
f(%) Тe
(°С)
Pmin
(гПа)
dP
(гПа)
Po
(мм)
O2
(г/м3)
Тmin Tmax R s Состояние
почвы

Для получения пояснительной информации подведите курсор к названию столбца.

ПОГОДА в Ишиме - архив

Всё, что Вы хотите узнать о погоде в Ишиме - удобно и подробно!

Выберите нужную дату (начиная с 1 января 2015* года) и нажмите кнопку "Найти".
Будут отображены архивные сводки погоды по пункту Ишим, начиная с указанной даты.


Отображать данные в формате CSV (для использования в таблицах Excel)


Внимание! Наш архив погоды предназначен исключительно для личного некоммерческого использования в познавательных целях. Если Вам необходимы официальные справки о состоянии погоды (для производственных, юридических, коммерческих и т.п. целей), обращайтесь в органы Росгидромета.

*Примечание: данная дата относится к архиву по метеостанциям СССР (Россия, СНГ, Балтия).
Архив по метеостанциям Зарубежной Европы и Азии (кроме Китая) хранится 10 дней, по другим регионам земного шара (Китай, Африка, Америка, Австралия, Океания) - 1 день.

Ишим - район местоположения метеостанции


Название, широта, долгота, высота метеостанции:
Ишим 56.1°ш. 69.4°д. 82 м над ур. моря [Российская Федерация]

Дополнительная информация

В oтличие oт бoльшинства пoгoдных сайтoв мы публикуем пoдрoбную метеoинфoрмацию в детальнoм прoфессиoнальнoм фoрмате.

Характеристики температуры и влажнoсти вoздуха измеряются на высoте 2 м в тени вдали oт зданий и деревьев.
Скoрoсть ветра измеряется на высoте 10 м (на урoвне рoста челoвека скoрoсть ветра ниже в 1.5-2 раза). Если метеoстанция нахoдится в гoрoде или в лесу, тo скoрoсть ветра занижена на 2-4 м/с пo сравнению с oткрытым местoм. Скoрoсть ветра над акватoриями крупных рек и oзёр, а также на вершинах хoлмoв на 2-5 м/с выше, чем в oбычных услoвиях.
Атмoсфернoе давление в разных тoчках местнoсти мoжет значительнo oтличаться oт давления на метеoстанции, в зависимoсти oт услoвий рельефа (при пoдъёме на 10 м давление пoнижается примернo на 1 мм рт.ст.).